MUOS-4

Last updated on Wed Jul 09 2025 00:02:45 GMT+0000 (Coordinated Universal Time)

1 40887U 15044A 25189.50622154 -.00000080 00000+0 00000+0 0 9998 2 40887 3.7043 39.1147 0057154 4.0792 140.7799 1.00272240 36111
UTC large
Height (km)
Speed (km/s)
/
Latitude / Longitude
Inclination (degrees)
Orbital Period (minutes)
Azimuth
Elevation
Range (km)
Doppler Factor

Next 0 passes for location: London (51.5072 / 0.1276)

Sorry there are no passes over London.